Location: McFarlands Corners
(41.4117°N, 81.3382°W)
Time: 00:21:37
(UTC+00:00)

Transit 4A - Pass Details

Date: 23 February 2026
Orbit: 864 x 977 km, 66.8° (Epoch: 10 March)

Event Time Altitude Azimuth Distance (km) Brightness Sun altitude
Rises 09:48:48 0° 263° (W) 3,477 - -26.9°
Reaches altitude 10° 09:52:16 10° 284° (WNW) 2,560 - -26.3°
Maximum altitude 09:55:56 17° 322° (NW) 2,149 - -25.6°
Exits shadow 09:56:59 16° 335° (NNW) 2,194 9.7 -25.4°
Drops below altitude 10° 09:59:41 10° 1° (N) 2,615 10.3 -24.9°
Sets 10:03:18 0° 22° (NNE) 3,586 11.4 -24.3°
